TimeEST,TemperatureF,Dew PointF,Humidity,Sea Level PressureIn,VisibilityMPH,Wind Direction,Wind SpeedMPH,Gust SpeedMPH,PrecipitationIn,Events,Conditions,WindDirDegrees,DateUTC
12:15 AM,32.4,29.5,89,30.45,10.0,North,-9999.0,-,N/A,,Overcast,0,2013-12-08 05:15:00
12:35 AM,32.5,29.5,88,30.44,10.0,North,-9999.0,-,N/A,,Overcast,0,2013-12-08 05:35:00
12:55 AM,32.7,29.7,88,30.43,10.0,North,-9999.0,-,N/A,,Overcast,0,2013-12-08 05:55:00
1:15 AM,32.7,29.8,89,30.42,10.0,North,-9999.0,-,N/A,,Overcast,0,2013-12-08 06:15:00
1:35 AM,32.9,30.2,90,30.42,10.0,North,-9999.0,-,N/A,,Overcast,0,2013-12-08 06:35:00
1:55 AM,32.9,30.6,91,30.42,10.0,North,-9999.0,-,N/A,,Overcast,0,2013-12-08 06:55:00
2:15 AM,33.1,30.7,91,30.39,10.0,North,-9999.0,-,N/A,,Overcast,0,2013-12-08 07:15:00
2:35 AM,33.4,31.1,91,30.39,10.0,North,-9999.0,-,N/A,,Overcast,0,2013-12-08 07:35:00
2:55 AM,33.6,31.3,91,30.40,10.0,North,-9999.0,-,N/A,,Overcast,0,2013-12-08 07:55:00
3:15 AM,33.8,31.8,92,30.40,10.0,North,-9999.0,-,N/A,,Overcast,0,2013-12-08 08:15:00
3:35 AM,34.0,32.0,92,30.40,10.0,North,-9999.0,-,N/A,,Overcast,0,2013-12-08 08:35:00
3:55 AM,34.3,32.0,91,30.38,7.0,North,-9999.0,-,N/A,,Overcast,0,2013-12-08 08:55:00
4:15 AM,34.7,32.9,93,30.37,10.0,North,-9999.0,-,N/A,,Overcast,0,2013-12-08 09:15:00
4:35 AM,35.1,33.6,94,30.36,10.0,North,-9999.0,-,N/A,,Overcast,0,2013-12-08 09:35:00
4:55 AM,35.6,33.8,93,30.35,10.0,North,-9999.0,-,N/A,,Overcast,0,2013-12-08 09:55:00
5:15 AM,35.8,34.0,93,30.34,10.0,North,-9999.0,-,N/A,,Overcast,0,2013-12-08 10:15:00
5:35 AM,36.1,34.2,93,30.33,10.0,North,-9999.0,-,N/A,,Overcast,0,2013-12-08 10:35:00
5:55 AM,36.1,34.3,93,30.34,10.0,North,-9999.0,-,N/A,,Overcast,0,2013-12-08 10:55:00
6:15 AM,36.0,34.2,93,30.35,10.0,North,-9999.0,-,N/A,,Overcast,0,2013-12-08 11:15:00
6:35 AM,36.5,34.5,93,30.35,10.0,North,-9999.0,-,N/A,,Overcast,0,2013-12-08 11:35:00
6:55 AM,36.5,34.7,93,30.34,10.0,North,-9999.0,-,N/A,,Overcast,0,2013-12-08 11:55:00
7:15 AM,36.9,34.3,91,30.32,10.0,North,-9999.0,-,N/A,,Overcast,0,2013-12-08 12:15:00
7:35 AM,36.9,34.7,92,30.31,10.0,North,-9999.0,-,N/A,,Overcast,0,2013-12-08 12:35:00
7:55 AM,37.2,34.7,91,30.32,10.0,North,-9999.0,-,N/A,,Overcast,0,2013-12-08 12:55:00
8:15 AM,37.4,34.9,91,30.31,10.0,North,-9999.0,-,N/A,,Overcast,0,2013-12-08 13:15:00
8:35 AM,37.4,34.7,90,30.32,7.0,North,-9999.0,-,N/A,,Overcast,0,2013-12-08 13:35:00
8:55 AM,36.9,34.7,92,30.30,7.0,North,-9999.0,-,N/A,,Overcast,0,2013-12-08 13:55:00
9:15 AM,36.7,34.7,93,30.32,3.0,North,-9999.0,-,N/A,,Overcast,0,2013-12-08 14:15:00
9:35 AM,36.5,35.1,95,30.32,4.0,North,-9999.0,-,N/A,,Overcast,0,2013-12-08 14:35:00
9:55 AM,36.9,35.6,95,30.33,3.0,North,-9999.0,-,N/A,,Overcast,0,2013-12-08 14:55:00
10:15 AM,36.9,35.8,96,30.32,4.0,North,-9999.0,-,N/A,,Overcast,0,2013-12-08 15:15:00
10:35 AM,36.5,35.4,96,30.32,4.0,North,-9999.0,-,N/A,,Overcast,0,2013-12-08 15:35:00
10:55 AM,36.5,35.4,96,30.32,7.0,North,-9999.0,-,N/A,,Overcast,0,2013-12-08 15:55:00
11:15 AM,36.5,35.6,97,30.30,1.2,North,-9999.0,-,N/A,Snow,Light Snow,0,2013-12-08 16:15:00
11:35 AM,36.5,35.6,97,30.29,7.0,North,-9999.0,-,N/A,,Overcast,0,2013-12-08 16:35:00
11:55 AM,37.0,36.0,96,30.27,10.0,North,-9999.0,-,N/A,,Overcast,0,2013-12-08 16:55:00
12:15 PM,36.9,35.6,95,30.25,4.0,North,-9999.0,-,N/A,,Overcast,0,2013-12-08 17:15:00
12:35 PM,36.9,35.8,96,30.25,2.5,North,-9999.0,-,N/A,Snow,Light Snow,0,2013-12-08 17:35:00
12:55 PM,36.9,36.0,97,30.25,1.8,North,-9999.0,-,N/A,Snow,Light Snow,0,2013-12-08 17:55:00
1:15 PM,37.2,36.7,98,30.25,4.0,North,-9999.0,-,N/A,,Overcast,0,2013-12-08 18:15:00
1:35 PM,37.6,37.4,99,30.24,5.0,North,-9999.0,-,N/A,,Overcast,0,2013-12-08 18:35:00
1:55 PM,37.8,37.4,99,30.23,2.5,North,-9999.0,-,N/A,,Overcast,0,2013-12-08 18:55:00
2:15 PM,37.8,37.4,99,30.23,2.5,North,-9999.0,-,N/A,,Overcast,0,2013-12-08 19:15:00
2:35 PM,38.1,37.6,98,30.22,4.0,North,-9999.0,-,N/A,,Overcast,0,2013-12-08 19:35:00
2:55 PM,38.3,37.8,98,30.21,7.0,North,-9999.0,-,N/A,,Overcast,0,2013-12-08 19:55:00
3:15 PM,38.3,37.6,97,30.20,10.0,North,-9999.0,-,N/A,,Overcast,0,2013-12-08 20:15:00
3:35 PM,38.5,37.8,97,30.20,10.0,North,-9999.0,-,N/A,,Overcast,0,2013-12-08 20:35:00
3:55 PM,38.7,37.8,97,30.20,10.0,North,-9999.0,-,N/A,,Overcast,0,2013-12-08 20:55:00
4:15 PM,38.8,37.8,96,30.20,10.0,North,-9999.0,-,N/A,,Overcast,0,2013-12-08 21:15:00
4:35 PM,39.0,37.6,95,30.18,10.0,North,-9999.0,-,N/A,,Overcast,0,2013-12-08 21:35:00
4:55 PM,39.0,37.6,95,30.19,10.0,North,-9999.0,-,N/A,,Overcast,0,2013-12-08 21:55:00
5:15 PM,38.8,37.6,95,30.18,10.0,North,-9999.0,-,N/A,,Overcast,0,2013-12-08 22:15:00
5:35 PM,39.0,37.4,94,30.17,10.0,North,-9999.0,-,N/A,,Overcast,0,2013-12-08 22:35:00
5:55 PM,39.2,37.6,94,30.18,10.0,North,-9999.0,-,N/A,,Overcast,0,2013-12-08 22:55:00
6:15 PM,39.4,37.8,94,30.17,10.0,North,-9999.0,-,N/A,,Overcast,0,2013-12-08 23:15:00
6:35 PM,39.6,37.9,94,30.17,10.0,North,-9999.0,-,N/A,,Overcast,0,2013-12-08 23:35:00
6:55 PM,39.4,38.5,97,30.18,2.0,North,-9999.0,-,N/A,,Unknown,0,2013-12-08 23:55:00
7:15 PM,39.6,39.2,99,30.20,2.5,North,-9999.0,-,N/A,,Unknown,0,2013-12-09 00:15:00
7:35 PM,39.4,39.2,99,30.16,2.0,North,-9999.0,-,N/A,,Unknown,0,2013-12-09 00:35:00
7:55 PM,40.1,39.7,99,30.17,10.0,North,-9999.0,-,N/A,,Overcast,0,2013-12-09 00:55:00
8:15 PM,40.1,40.1,100,30.16,4.0,North,-9999.0,-,N/A,,Unknown,0,2013-12-09 01:15:00
8:35 PM,40.3,40.1,99,30.15,4.0,North,-9999.0,-,N/A,,Unknown,0,2013-12-09 01:35:00
8:55 PM,40.8,40.5,99,30.16,5.0,North,-9999.0,-,N/A,,Overcast,0,2013-12-09 01:55:00
9:15 PM,41.0,40.8,99,30.16,1.5,North,-9999.0,-,N/A,,Unknown,0,2013-12-09 02:15:00
9:35 PM,41.0,41.0,100,30.15,3.0,North,-9999.0,-,N/A,,Overcast,0,2013-12-09 02:35:00
9:55 PM,41.5,41.5,100,30.15,3.0,North,-9999.0,-,N/A,,Unknown,0,2013-12-09 02:55:00
10:15 PM,41.9,41.7,99,30.15,3.0,North,-9999.0,-,N/A,,Overcast,0,2013-12-09 03:15:00
10:35 PM,41.9,41.5,99,30.13,-9999.0,North,-9999.0,-,N/A,,Unknown,0,2013-12-09 03:35:00
10:55 PM,42.1,41.9,99,30.13,2.5,North,-9999.0,-,N/A,,Unknown,0,2013-12-09 03:55:00
11:15 PM,41.9,41.9,100,30.11,5.0,North,-9999.0,-,N/A,,Overcast,0,2013-12-09 04:15:00
11:35 PM,41.9,41.9,100,30.10,10.0,North,-9999.0,-,N/A,,Overcast,0,2013-12-09 04:35:00
11:55 PM,42.1,42.1,100,30.09,10.0,North,-9999.0,-,N/A,,Mostly Cloudy,0,2013-12-09 04:55:00